Location: Sungai Apap
(2.6167°N, 113.3833°E)
Time: 14:32:14
(UTC+00:00)

Spelda - Pass Details

Date: 25 May 2024
Orbit: 355 x 20729 km, 3.6° (Epoch: 11 June)

Event Time Altitude Azimuth Distance (km) Brightness Sun altitude
Exits shadow 20:54:27 25° 272° (W) 2,543 6.6 -19.7°
Maximum altitude 20:58:58 81° 358° (N) 764 4.4 -18.6°
Drops below altitude 10° 21:02:02 10° 86° (E) 1,624 7.3 -17.9°
Sets 21:03:24 0° 87° (E) 2,290 8.3 -17.6°
